Weather History for Hermiston, OR

Change the Weather History Date:

Thursday, April 17, 2014

  Actual Average Record
Temperature  
Mean Temperature 52 °F -  
Max Temperature 55 °F 64 °F 87 °F (1936)
Min Temperature 50 °F 39 °F 21 °F (2013)
Degree Days  
Heating Degree Days 12    
Growing Degree Days 2 (Base 50)    
Moisture  
Dew Point 48 °F    
Average Humidity 84    
Maximum Humidity 96    
Minimum Humidity 59    
Precipitation  
Precipitation 0.23 in - - ()
Sea Level Pressure  
Sea Level Pressure 29.85 in    
Wind  
Wind Speed 8 mph (SSW)    
Max Wind Speed 18 mph    
Max Gust Speed -    
Visibility 10 miles    
Events Rain    
Averages and records for this station are not official NWS values.
T = Trace of Precipitation, MM = Missing Value Source: NWS Daily Summary

Daily Weather History Graph

Daily Weather History Graph

Search for Another Location

Airport:

Trip Planner

Search our weather history database for the weather conditions in past years. The results will help you decide how hot, cold, wet, or windy it might be!

Date:

Astronomy

Apr. 17, 2014 Rise Set
Actual Time 6:07 AM PDT 7:46 PM PDT
Civil Twilight 5:36 AM PDT 8:18 PM PDT
Nautical Twilight 4:57 AM PDT 8:56 PM PDT
Astronomical Twilight 4:16 AM PDT 9:37 PM PDT
Moon 10:44 PM PDT (4/17) 7:37 AM PDT (4/17)
Length of Visible Light 14h 42m
Length of Day
13h 39m
Waning Gibbous, 93% of the Moon is Illuminated
Apr 17
Waning Gibbous
Apr 22
Last Quarter
Apr 28
New
May 6
First Quarter
May 14
Full

Hourly Weather History & Observations

Time (PDT) Temp. Dew Point Humidity Pressure Visibility Wind Dir Wind Speed Gust Speed Precip Events Conditions
12:53 AM 55.0 °F 41.0 °F 59% 29.94 in 10.0 mi SW 9.2 mph - N/A   Overcast
1:53 AM 54.0 °F 42.1 °F 64% 29.93 in 10.0 mi SW 6.9 mph - N/A   Overcast
2:53 AM 53.1 °F 44.1 °F 71% 29.92 in 10.0 mi SSW 6.9 mph - 0.00 in Rain Light Rain
3:53 AM 51.1 °F 46.0 °F 83% 29.90 in 10.0 mi South 6.9 mph - 0.01 in Rain Light Rain
4:53 AM 50.0 °F 46.9 °F 89% 29.89 in 10.0 mi SSE 3.5 mph - 0.01 in Rain Light Rain
5:53 AM 50.0 °F 46.9 °F 89% 29.88 in 10.0 mi South 5.8 mph - 0.01 in Rain Light Rain
6:53 AM 50.0 °F 48.9 °F 96% 29.87 in 10.0 mi South 4.6 mph - 0.01 in Rain Light Rain
7:53 AM 52.0 °F 46.9 °F 83% 29.88 in 10.0 mi SW 5.8 mph - 0.01 in Rain Light Rain
10:53 AM 55.0 °F 50.0 °F 83% 29.86 in 10.0 mi SW 10.4 mph - 0.01 in Rain Light Rain
11:53 AM 55.0 °F 50.0 °F 83% 29.85 in 10.0 mi SW 10.4 mph - 0.02 in Rain Light Rain
12:53 PM 55.0 °F 50.0 °F 83% 29.84 in 10.0 mi SW 8.1 mph - 0.01 in Rain Light Rain
1:53 PM 55.0 °F 50.0 °F 83% 29.84 in 10.0 mi SW 9.2 mph - 0.03 in Rain Light Rain
2:53 PM 54.0 °F 51.1 °F 90% 29.83 in 10.0 mi WSW 5.8 mph - 0.03 in Rain Light Rain
3:45 PM 55.0 °F 52.0 °F 89% 29.82 in 10.0 mi SSW 4.6 mph - 0.03 in Rain Light Rain
3:53 PM 55.0 °F 51.1 °F 86% 29.82 in 10.0 mi South 5.8 mph - 0.03 in Rain Light Rain
4:01 PM 54.0 °F 51.1 °F 90% 29.82 in 10.0 mi South 5.8 mph - 0.00 in Rain Light Rain
4:53 PM 54.0 °F 51.1 °F 90% 29.81 in 10.0 mi SSE 6.9 mph - 0.02 in Rain Light Rain
5:53 PM 54.0 °F 51.1 °F 90% 29.81 in 10.0 mi South 6.9 mph - 0.02 in Rain Light Rain
6:53 PM 54.0 °F 52.0 °F 93% 29.81 in 10.0 mi SSE 3.5 mph - 0.01 in   Overcast
7:53 PM 52.0 °F 50.0 °F 93% 29.80 in 10.0 mi South 5.8 mph - N/A   Clear
8:53 PM 52.0 °F 48.9 °F 89% 29.82 in 10.0 mi South 9.2 mph - N/A   Mostly Cloudy
9:53 PM 50.0 °F 46.9 °F 89% 29.80 in 10.0 mi SSW 18.4 mph - N/A   Clear
10:53 PM 53.1 °F 45.0 °F 74% 29.82 in 10.0 mi SW 10.4 mph - N/A   Clear
11:53 PM 52.0 °F 43.0 °F 71% 29.85 in 10.0 mi WSW 13.8 mph - N/A   Mostly Cloudy